Regional Weather Roundup
Issued by NWS Bismarck, ND

Home | Current Version | Previous Version | Text Only | Print | Product List | Glossary On
Versions: 1 2 3 4 5 6 7 8 9 10 11 12 13 14 15 16 17 18 19 20 21 22 23 24 25 26 27 28 29 30 31 32 33 34 35 36 37 38 39 40 41 42 43 44 45 46 47 48 49 50
000
ASUS43 KBIS 030310
RWRBIS

NWR BROADCAST TEXT
NATIONAL WEATHER SERVICE BISMARCK ND
1000 PM CDT THU JUL 02 2015

NOTE: "FAIR" INDICATES FEW OR NO CLOUDS BELOW 12,000 FEET WITH NO
SIGNIFICANT WEATHER AND/OR OBSTRUCTIONS TO VISIBILITY.


CITY           SKY/WX    TMP DP  RH WIND       PRES   REMARKS
WILLISTON      MOCLDY    76  63  64 NE7       30.00R
MINOT          CLOUDY    71  64  78 W8        29.96R HAZE
MINOT AFB      MOCLDY    67  67 100 W6        29.95S FOG
BISMARCK       CLOUDY    72  64  76 CALM      29.98R HAZE
DICKINSON      CLEAR     71  59  65 NE5       30.02R HAZE
GARRISON         N/A     68  65  90 NW6       29.98R
HETTINGER ARPT CLEAR     66  58  75 CALM      30.05R HAZE
JAMESTOWN      CLEAR     71  64  78 S7        29.93R
BEACH          FAIR      66  66 100 CALM      30.06S FOG
CROSBY         FAIR      64  64 100 NW6       30.01S FOG
HARVEY         FAIR      68  66  94 NW3       29.95S FOG
HAZEN          FAIR      68  64  88 CALM      30.00R HAZE
LINTON         FAIR      68  68 100 N3        29.98R FOG
MANDAN         FAIR      68  64  88 CALM      30.00R FOG
OAKES            N/A     64  64 100 S7        29.95S
STANLEY        FAIR      66  66 100 CALM      30.02R
$$

CITY           SKY/WX    TMP DP  RH WIND       PRES   REMARKS
GRAND FORKS    CLOUDY    69  65  86 SW6       29.88S
GRAND FORKS AF PTCLDY    67  63  89 SW5       29.90R
DEVILS LAKE    MOCLDY    70  61  73 W7        29.92R
FARGO          PTCLDY    67  55  65 S8        29.93R
CANDO          FAIR      66  64  94 W7        29.94R FOG
CAVALIER       FAIR      72  64  78 W5        29.88R HAZE
GRAFTON        FAIR      72  68  88 W5        29.89R FOG
GWINNER          N/A    N/A N/A N/A MISG        N/A
LANGDON        FAIR      66  66 100 NW6       29.93R FOG
ROLLA          FAIR      66  64  94 NW8       29.96R
WALHALLA       FAIR      72  72 100 MISG      29.90R FOG
$$

CITY           SKY/WX    TMP DP  RH WIND       PRES   REMARKS
ABERDEEN       PTCLDY    65  61  87 S6        29.96F
MOBRIDGE       PTCLDY    70  68  93 N6        29.96R FOG
BUFFALO          N/A     71  58  63 NE6       30.00S
RAPID CITY     CLEAR     67  59  75 NE9       30.07R
GLASGOW        CLEAR     73  57  57 NE8       30.02S HAZE
SIDNEY         CLEAR     72  61  68 W6        30.01R
WOLF POINT     CLEAR     74  63  68 N9        30.01S HAZE
GLENDIVE       CLEAR     73  57  56 N7        30.04S
MILES CITY     CLEAR     76  54  46 N8        30.04R
BAKER          CLEAR     69  59  70 CALM      30.06S HAZE
$$

CITY           SKY/WX    TMP DP  RH WIND       PRES   REMARKS
BILLINGS       CLEAR     77  50  38 E7        30.10R
GREAT FALLS    CLOUDY    80  47  31 E14       30.05S
REGINA         MOCLDY    68  63  83 NW5       30.00R SMOKE
ESTEVAN        CLOUDY    66  64  94 NW6       29.99R SMOKE
$$



USA.gov is the U.S. government's official web portal to all federal, state and local government web resources and services.